Content
SEND FEEDBACK

Daily
Averages
Monthly
Summary
United States of America

DONALDSONVILLE, GEORGIA


Home > North America > United States > Georgia
Elevation: 14 feet     Latitude: 31 02N     Longitude: 084 55W

WEATHER
 
SELECT A DAY
Number of Records: 303,721;   Date Range: 6/3/02 - 10/29/14
 
SHARE

PRINT THIS DATA

[ ← Previous Day ]
WEATHER ALMANAC - FEBRUARY 13, 2013
[ Next Day → ]
[ °C ]   °F
Weather ElementAverageHighLow
Temperature64.8 °F71.6 °F (12:35 am)51.8 °F (7:35 pm)
Dewpoint56.4 °F69.8 °F (12:35 am)44.6 °F (2:35 pm)
Humidity76.7 %94 % (12:35 am)41 % (11:55 am)
Barometer29.87 in30.01 in (8:55 pm)29.77 in (3:55 am)
Wind Speed10 mph16.1 mph (1:55 pm)
Wind Gust24.2 mph (2:35 pm)
Weather ElementAverage
Visibility8.6 mi
Wind DirectionWSW (261.5 °)

Weather ElementTotal
Precipitation---
Heating Degree Days3.3 (Base 65)
Growing Degree Days11.7 (Base 50)
Averaged from 68 records on February 13, 2013
WEATHER CONDITIONS BREAKOUT
WIND DIRECTION BREAKOUT
WEATHER BY HOUR - FEBRUARY 13, 2013
[ °C ]   °F
Local TimeTemperatureDewpointHumidityBarometerVisibilityWind DirectionWind SpeedGust SpeedPrecipitationEventsConditions
12:35 AM71.6 °F69.8 °F94 %29.80 in7.0 miSW (220°)15.0 mph20.7 mphRainLight Rain
12:55 AM71.6 °F69.8 °F94 %29.80 in7.0 miSW (230°)13.8 mph18.4 mphScattered Clouds
1:15 AM71.6 °F69.8 °F94 %29.79 in4.0 miSW (230°)12.7 mph18.4 mphRainHeavy Rain
1:35 AM71.6 °F69.8 °F94 %29.80 in5.0 miSW (230°)12.7 mphRainLight Rain
2:15 AM71.6 °F69.8 °F94 %29.79 in7.0 miSW (230°)11.5 mph16.1 mphMostly Cloudy
2:35 AM71.6 °F69.8 °F94 %29.79 in7.0 miSW (230°)10.4 mphMostly Cloudy
2:55 AM71.6 °F69.8 °F94 %29.78 in7.0 miSW (220°)11.5 mphThunderstormMostly Cloudy
3:15 AM71.6 °F69.8 °F94 %29.78 in7.0 miSW (230°)9.2 mphThunderstormMostly Cloudy
3:35 AM71.6 °F69.8 °F94 %29.78 in7.0 miSW (220°)11.5 mph19.6 mphThunderstormThunderstorm
3:55 AM71.6 °F69.8 °F94 %29.77 in7.0 miSW (230°)11.5 mph17.3 mphMostly Cloudy
4:15 AM71.6 °F69.8 °F94 %29.77 in7.0 miSW (230°)12.7 mph17.3 mphThunderstormMostly Cloudy
4:35 AM71.6 °F69.8 °F94 %29.78 in7.0 miWSW (240°)10.4 mphOvercast
4:55 AM71.6 °F69.8 °F94 %29.78 in5.0 miSW (230°)11.5 mphRainLight Rain
5:15 AM71.6 °F69.8 °F94 %29.78 in7.0 miSW (230°)9.2 mphMostly Cloudy
5:35 AM71.6 °F69.8 °F94 %29.78 in7.0 miWSW (240°)11.5 mph17.3 mphMostly Cloudy
5:55 AM71.6 °F69.8 °F94 %29.79 in7.0 miWSW (240°)10.4 mphMostly Cloudy
6:15 AM71.6 °F69.8 °F94 %29.79 in7.0 miWSW (250°)10.4 mph17.3 mphScattered Clouds
6:35 AM71.6 °F69.8 °F94 %29.80 in7.0 miWSW (240°)11.5 mphScattered Clouds
6:55 AM71.6 °F69.8 °F94 %29.81 in7.0 miWSW (250°)11.5 mph19.6 mphScattered Clouds
7:15 AM71.6 °F68.0 °F88 %29.82 in7.0 miWest (260°)10.4 mphScattered Clouds
7:35 AM69.8 °F68.0 °F94 %29.82 in7.0 miWSW (240°)8.1 mphScattered Clouds
7:55 AM69.8 °F68.0 °F94 %29.83 in5.0 miSW (230°)8.1 mphScattered Clouds
8:15 AM69.8 °F68.0 °F94 %29.84 in7.0 miWSW (240°)8.1 mphScattered Clouds
8:35 AM69.8 °F68.0 °F94 %29.85 in7.0 miWSW (250°)11.5 mphScattered Clouds
8:55 AM71.6 °F68.0 °F88 %29.87 in7.0 miWest (270°)11.5 mph19.6 mphScattered Clouds
9:15 AM68.0 °F55.4 °F64 %29.87 in10.0 miWNW (290°)10.4 mphScattered Clouds
9:35 AM64.4 °F53.6 °F68 %29.88 in10.0 miWNW (290°)15.0 mphClear
9:55 AM66.2 °F53.6 °F64 %29.89 in10.0 miWNW (290°)8.1 mphClear
10:15 AM66.2 °F55.4 °F68 %29.90 in10.0 miWest (270°)9.2 mphClear
10:35 AM68.0 °F51.8 °F56 %29.90 in10.0 miWNW (290°)10.4 mphClear
11:15 AM68.0 °F50.0 °F52 %29.89 in10.0 miWNW (290°)8.1 mphClear
11:35 AM69.8 °F51.8 °F53 %29.89 in10.0 miWest (260°)6.9 mphClear
11:55 AM71.6 °F46.4 °F41 %29.88 in10.0 miWest (260°)10.4 mphClear
12:15 PM69.8 °F46.4 °F43 %29.87 in10.0 miWest (260°)6.9 mphClear
12:35 PM71.6 °F51.8 °F50 %29.87 in10.0 miWest (280°)6.9 mphClear
12:55 PM71.6 °F48.2 °F43 %29.87 in10.0 miWest (280°)12.7 mphClear
1:15 PM71.6 °F48.2 °F43 %29.87 in10.0 miWest (260°)15.0 mph20.7 mphClear
1:35 PM69.8 °F48.2 °F46 %29.86 in10.0 miWest (270°)13.8 mphClear
1:55 PM71.6 °F48.2 °F43 %29.86 in10.0 miWNW (300°)16.1 mphClear
2:15 PM71.6 °F48.2 °F43 %29.85 in10.0 miWNW (290°)15.0 mph18.4 mphClear
2:35 PM68.0 °F44.6 °F43 %29.87 in10.0 miWest (280°)16.1 mph24.2 mphClear
2:55 PM66.2 °F44.6 °F46 %29.87 in10.0 miWest (270°)13.8 mphClear
3:15 PM64.4 °F46.4 °F52 %29.87 in10.0 miWest (270°)8.1 mph16.1 mphScattered Clouds
3:35 PM64.4 °F48.2 °F56 %29.88 in10.0 miCalmMostly Cloudy
3:55 PM64.4 °F46.4 °F52 %29.88 in10.0 miWNW (290°)10.4 mphScattered Clouds
4:15 PM64.4 °F46.4 °F52 %29.89 in10.0 miWest (280°)9.2 mphScattered Clouds
4:35 PM64.4 °F46.4 °F52 %29.90 in10.0 miWNW (290°)13.8 mphScattered Clouds
4:55 PM62.6 °F48.2 °F59 %29.87 in10.0 miWNW (290°)8.1 mph11.5 mphScattered Clouds
5:15 PM59.0 °F50.0 °F72 %29.89 in10.0 miWest (260°)8.1 mphRainLight Rain
5:35 PM59.0 °F51.8 °F77 %29.90 in10.0 miWest (260°)9.2 mphRainLight Rain
5:55 PM57.2 °F51.8 °F82 %29.91 in10.0 miWest (260°)6.9 mphRainRain
6:15 PM57.2 °F53.6 °F88 %29.91 in5.0 miWNW (290°)10.4 mph21.9 mphRainRain
6:35 PM53.6 °F51.8 °F94 %29.92 in10.0 miWest (260°)8.1 mphRainLight Rain
6:55 PM53.6 °F51.8 °F94 %29.94 in7.0 miWest (280°)6.9 mphRainRain
7:15 PM53.6 °F51.8 °F94 %29.94 in10.0 miWNW (300°)9.2 mphRainLight Rain
7:35 PM51.8 °F50.0 °F94 %29.98 in10.0 miNW (320°)11.5 mphOvercast
7:55 PM51.8 °F46.4 °F82 %29.98 in10.0 miNW (310°)10.4 mphOvercast
8:15 PM51.8 °F48.2 °F88 %29.97 in10.0 miNNW (330°)9.2 mphOvercast
8:35 PM51.8 °F48.2 °F88 %29.98 in10.0 miNW (310°)6.9 mphMostly Cloudy
8:55 PM51.8 °F46.4 °F82 %30.01 in10.0 miNW (310°)10.4 mphMostly Cloudy
9:15 PM51.8 °F46.4 °F82 %29.98 in10.0 miNNW (330°)6.9 mphMostly Cloudy
9:35 PM51.8 °F46.4 °F82 %30.00 in10.0 miNW (310°)10.4 mphScattered Clouds
9:55 PM51.8 °F46.4 °F82 %30.00 in10.0 miNW (310°)8.1 mphClear
10:15 PM51.8 °F46.4 °F82 %30.00 in10.0 miNNW (330°)8.1 mphClear
10:35 PM51.8 °F46.4 °F82 %30.00 in10.0 miNW (310°)6.9 mphClear
11:15 PM51.8 °F46.4 °F82 %29.99 in10.0 miCalmClear
11:35 PM51.8 °F46.4 °F82 %30.00 in10.0 miNW (320°)3.5 mphClear
11:55 PM51.8 °F46.4 °F82 %30.00 in10.0 miNW (320°)4.6 mphClear
Hourly data recorded from KBGE, located miles away from Donaldsonville, Georgia







STORIES FROM OUR PARTNERS